SXM-9 (62259 NORAD) Tracking and Keplerian Element Data

This shows tracking and keplerian element data for the satellite.

Feedback or suggestion? Click here.




ElementValue
Catalog62259
NameSXM-9
Epoch Orbit56
Epoch Day31.77355375
Epoch Year2025
RAAN50.664
Inclination0.011
Eccentricity0.0004615
Argument of Perigee264.9947
Mean Anonmoly8.8646
Mean Motion1.00270119
Decay Rate-1.99E-06
L11 62259U 24234A 25031.77355375 -.00000199 00000+0 00000+0 0 9990
L22 62259 0.0110 50.6640 0004615 264.9947 8.8646 1.00270119 560



Live tracking and technical data element details for SXM-9 (NORAD 62259). SXM-9 can be tracked NOW for your location showing map with azimuth and elevation plus other details from your city location.







IsCatalogInMostPopularTable: catalog: 62259, numindb: 11
Update: records affected: 1



GetName: 62259 SXM-9

Hit Count: updated at: Sun, 18 May 2025 22:52:14 GMT